Colorado City, AZ

8:35 PM MST on November 11, 2019 (GMT -0700)
Colorado City Municipal

Weather History for KAZC - September, 2019

Change the Weather History Date:

Thursday, September 19, 2019

  Actual Average (KSGU) Record (KSGU)
Temperature  
Mean Temperature 64 °F -  
Max Temperature 86 °F 90 °F 102 °F (1956)
Min Temperature 42 °F 56 °F 37 °F (1965)
Degree Days  
Heating Degree Days 1    
Growing Degree Days 14 (Base 50)    
Moisture  
Dew Point 24 °F    
Average Humidity 24    
Maximum Humidity 46    
Minimum Humidity 8    
Precipitation  
Precipitation 0.00 in - - ()
Sea Level Pressure  
Sea Level Pressure 29.92 in    
Wind  
Wind Speed 7 mph (South)    
Max Wind Speed 28 mph    
Max Gust Speed 34 mph    
Visibility 10 miles    
Events      
Averages and records for this station are not official NWS values.
T = Trace of Precipitation, MM = Missing Value Source: NWS Daily Summary

Daily Weather History Graph

Daily Weather History Graph

Search for Another Location

Airport or City:

Astronomy

Sep. 19, 2019 Rise Set
Actual Time 6:17 AM MST 6:33 PM MST
Civil Twilight 5:51 AM MST 6:59 PM MST
Nautical Twilight 5:21 AM MST 7:30 PM MST
Astronomical Twilight 4:50 AM MST 8:00 PM MST
Moon 9:52 PM MST (9/19) 11:17 AM MST (9/19)
Length of Visible Light 13h 08m
Length of Day
12h 16m
Waning Gibbous, 73% of the Moon is Illuminated
Sep 19
Waning Gibbous
Sep 21
Last Quarter
Sep 28
New
Oct 5
First Quarter
Oct 13
Full

Hourly Weather History & Observations

Time (MST) Temp. Windchill Dew Point Humidity Pressure Visibility Wind Dir Wind Speed Gust Speed Precip Events Conditions
12:15 AM 53.6 °F - 21.2 °F 28% 30.00 in 10.0 mi Calm Calm - N/A   Clear
12:35 AM 48.2 °F - 17.6 °F 30% 30.00 in 10.0 mi Calm Calm - N/A   Clear
12:55 AM 50.0 °F - 23.0 °F 35% 30.00 in 10.0 mi East 3.5 mph - N/A   Clear
1:15 AM 46.4 °F - 17.6 °F 32% 30.00 in - Calm Calm - N/A   Clear
1:35 AM 46.4 °F 45.2 °F 21.2 °F 37% 29.99 in 10.0 mi East 3.5 mph - N/A   Clear
1:55 AM 51.8 °F - 21.2 °F 30% 29.99 in 10.0 mi SE 3.5 mph - N/A   Clear
2:15 AM 51.8 °F - 23.0 °F 33% 29.99 in 10.0 mi ESE 10.4 mph - N/A   Clear
2:55 AM 50.0 °F - 26.6 °F 40% 29.98 in 10.0 mi ESE 10.4 mph - N/A   Clear
3:15 AM 50.0 °F - 23.0 °F 35% 29.99 in 10.0 mi ESE 5.8 mph - N/A   Clear
3:35 AM 48.2 °F - 23.0 °F 37% 29.99 in 10.0 mi East 5.8 mph - N/A   Clear
3:55 AM 51.8 °F - 24.8 °F 35% 29.99 in - East 6.9 mph - N/A   Clear
4:15 AM 51.8 °F - 24.8 °F 35% 29.98 in 10.0 mi ESE 5.8 mph - N/A   Clear
4:35 AM 51.8 °F - 23.0 °F 33% 29.98 in - SSE 3.5 mph - N/A   Clear
4:55 AM 44.6 °F 41.4 °F 23.0 °F 43% 29.98 in - SE 5.8 mph - N/A   Clear
5:15 AM 42.8 °F 41.1 °F 23.0 °F 46% 29.98 in - SE 3.5 mph - N/A   Clear
5:35 AM 46.4 °F - 23.0 °F 40% 29.98 in - Calm Calm - N/A   Clear
5:55 AM 46.4 °F - 21.2 °F 37% 29.98 in - Calm Calm - N/A   Clear
6:15 AM 44.6 °F - 23.0 °F 43% 29.98 in 10.0 mi Calm Calm - N/A   Clear
6:35 AM 46.4 °F - 23.0 °F 40% 29.98 in 10.0 mi Calm Calm - N/A   Clear
6:55 AM 50.0 °F - 24.8 °F 37% 29.99 in 10.0 mi Calm Calm - N/A   Clear
7:15 AM 53.6 °F - 28.4 °F 38% 29.98 in 10.0 mi Calm Calm - N/A   Clear
7:35 AM 60.8 °F - 30.2 °F 31% 29.98 in 10.0 mi Calm Calm - N/A   Clear
7:55 AM 69.8 °F - 28.4 °F 21% 29.98 in 10.0 mi SE 8.1 mph - N/A   Clear
8:15 AM 71.6 °F - 28.4 °F 20% 29.98 in 10.0 mi SE 12.7 mph 16.1 mph N/A   Clear
8:35 AM 73.4 °F - 28.4 °F 19% 29.98 in 10.0 mi SE 13.8 mph - N/A   Clear
8:55 AM 73.4 °F - 28.4 °F 19% 29.97 in 10.0 mi SE 10.4 mph 20.7 mph N/A   Clear
9:15 AM 77.0 °F - 28.4 °F 17% 29.97 in 10.0 mi SE 12.7 mph 20.7 mph N/A   Clear
9:35 AM 78.8 °F - 28.4 °F 16% 29.97 in 10.0 mi SSE 17.3 mph 27.6 mph N/A   Clear
9:55 AM 78.8 °F - 28.4 °F 16% 29.96 in 10.0 mi SSE 16.1 mph 25.3 mph N/A   Clear
10:15 AM 80.6 °F - 21.2 °F 11% 29.96 in 10.0 mi South 17.3 mph 31.1 mph N/A   Clear
10:35 AM 80.6 °F - 23.0 °F 12% 29.96 in 10.0 mi SSW 15.0 mph 29.9 mph N/A   Clear
10:55 AM 80.6 °F - 23.0 °F 12% 29.95 in 10.0 mi South 13.8 mph 26.5 mph N/A   Clear
11:15 AM 82.4 °F - 23.0 °F 11% 29.94 in 10.0 mi South 19.6 mph 27.6 mph N/A   Clear
11:35 AM 82.4 °F - 23.0 °F 11% 29.94 in 10.0 mi South 20.7 mph 25.3 mph N/A   Clear
11:55 AM 82.4 °F - 21.2 °F 10% 29.93 in 10.0 mi SSW 12.7 mph 25.3 mph N/A   Clear
12:15 PM 84.2 °F - 21.2 °F 10% 29.93 in 10.0 mi SSW 11.5 mph 26.5 mph N/A   Clear
12:35 PM 86.0 °F - 21.2 °F 9% 29.92 in 10.0 mi SSW 19.6 mph 27.6 mph N/A   Clear
12:55 PM 86.0 °F - 19.4 °F 9% 29.91 in 10.0 mi SW 18.4 mph 26.5 mph N/A   Clear
1:15 PM 86.0 °F - 19.4 °F 9% 29.90 in 10.0 mi SW 13.8 mph 29.9 mph N/A   Clear
1:35 PM 86.0 °F - 19.4 °F 9% 29.89 in 10.0 mi SW 23.0 mph 28.8 mph N/A   Clear
1:55 PM 86.0 °F - 19.4 °F 9% 29.88 in 10.0 mi SSW 20.7 mph 27.6 mph N/A   Clear
2:15 PM 86.0 °F - 17.6 °F 8% 29.88 in 10.0 mi SW 21.9 mph 29.9 mph N/A   Clear
2:35 PM 86.0 °F - 17.6 °F 8% 29.87 in 10.0 mi SSW 27.6 mph 34.5 mph N/A   Clear
2:55 PM 86.0 °F - 19.4 °F 9% 29.86 in 10.0 mi SW 20.7 mph 29.9 mph N/A   Clear
3:15 PM 86.0 °F - 19.4 °F 9% 29.85 in 10.0 mi SW 17.3 mph 29.9 mph N/A   Clear
3:35 PM 86.0 °F - 19.4 °F 9% 29.85 in 10.0 mi SSW 16.1 mph 26.5 mph N/A   Clear
3:55 PM 86.0 °F - 19.4 °F 9% 29.85 in 10.0 mi SSW 15.0 mph 29.9 mph N/A   Clear
4:15 PM 86.0 °F - 19.4 °F 9% 29.85 in 10.0 mi SW 17.3 mph 25.3 mph N/A   Clear
4:35 PM 84.2 °F - 19.4 °F 9% 29.84 in 10.0 mi SW 19.6 mph 27.6 mph N/A   Clear
4:55 PM 82.4 °F - 17.6 °F 9% 29.85 in 10.0 mi SW 15.0 mph 27.6 mph N/A   Clear
5:15 PM 82.4 °F - 17.6 °F 9% 29.85 in 10.0 mi SW 17.3 mph 27.6 mph N/A   Clear
5:35 PM 80.6 °F - 17.6 °F 10% 29.85 in 10.0 mi SW 17.3 mph 29.9 mph N/A   Clear
5:55 PM 78.8 °F - 24.8 °F 14% 29.85 in 10.0 mi West 12.7 mph 31.1 mph N/A   Clear
6:15 PM 77.0 °F - 26.6 °F 16% 29.85 in 10.0 mi West 15.0 mph 21.9 mph N/A   Clear
6:55 PM 73.4 °F - 26.6 °F 18% 29.85 in 10.0 mi WSW 11.5 mph 18.4 mph N/A   Clear
7:15 PM 71.6 °F - 26.6 °F 19% 29.85 in - WSW 8.1 mph - N/A   Clear
7:35 PM 71.6 °F - 28.4 °F 20% 29.86 in - West 6.9 mph - N/A   Clear
7:55 PM 68.0 °F - 28.4 °F 23% 29.86 in - WSW 4.6 mph - N/A   Clear
8:15 PM 68.0 °F - 28.4 °F 23% 29.87 in - West 4.6 mph - N/A   Clear
8:35 PM 60.8 °F - 26.6 °F 27% 29.87 in 10.0 mi ESE 3.5 mph - N/A   Clear
8:55 PM 55.4 °F - 30.2 °F 38% 29.87 in 10.0 mi East 3.5 mph - N/A   Clear
9:15 PM 53.6 °F - 28.4 °F 38% 29.87 in - ESE 3.5 mph - N/A   Clear
9:35 PM 53.6 °F - 28.4 °F 38% 29.88 in - ESE 8.1 mph - N/A   Clear
9:55 PM 53.6 °F - 28.4 °F 38% 29.88 in - East 3.5 mph - N/A   Clear
10:15 PM 55.4 °F - 26.6 °F 33% 29.89 in - Calm Calm - N/A   Clear
10:35 PM 51.8 °F - 26.6 °F 38% 29.89 in - Calm Calm - N/A   Clear
10:55 PM 51.8 °F - 26.6 °F 38% 29.89 in - Calm Calm - N/A   Clear
11:15 PM 48.2 °F - 28.4 °F 46% 29.89 in - East 4.6 mph - N/A   Clear
11:35 PM 51.8 °F - 28.4 °F 41% 29.89 in - Calm Calm - N/A   Clear
11:55 PM 51.8 °F - 26.6 °F 38% 29.89 in - Calm Calm - N/A   Clear